星链-30772 (STARLINK-30772 )

导读

STARLINK-30772是美国太空探索技术公司(SpaceX)于2023年10月22日发射的星链(Starlink)卫星,属于第二代“星链”V2.0迷你版本卫星,它由猎鹰9号火箭在卡纳维拉尔角发射升空,被部署至近地轨道,是SpaceX星链星座组网的组成部分,旨在为全球提供高速卫星互联网接入服务,助力星链完成大规模低轨星座的部署计划。

Basic Information
目录编号:
58135
目录名称:
STARLINK-30772
国际标识:
2023-162T
轨道中心:
EARTH
卫星名称:
星链-30772
卫星全名:
星链-30772 (STARLINK-30772 )
卫星状态:
在轨 (已飞行1055 天)
发射日期:
2023-10-22 UTC
国别 :
美国 (US)
星等 :
--
This satellite is enrolled in the Space Conjunction Data Service (SCDS) and the current flight risk assessment level is: High Risk
Orbit Information
数据来源 国际轨道数据 AOE轨道数据
星历时间 2026-09-11T10:19:37+0800
14小时前
查看轨道信息
2026-09-09T23:00:00+0800
2天前
查看轨道信息
半长轴 6861.2km 6861.216km
偏心率 0.0001526 0.0001816
轨道倾角 43.002° 43.002°
近地点辐角 270.810° 246.090°
升交点赤经 165.324° 173.636°
平近点角 89.257° 289.830°
近地点 482.015km 481.833km
远地点 484.111km 484.325km
周期 94.267分钟 94.267分钟
每日圈数 15.275756 15.275702
Detailed Information
固有亮度:
5
最大亮度:
0.3
卫星平台:
Starlink v2.0 mini
覆盖范围:
全球
运营商:
太空探索技术公司
运营商所在国:
美国
制造商(研发单位):
太空探索技术公司
制造商所在国:
美国
使用方式:
暂无
Satellite Introduction
星链(Starlink)计划是由太空探索技术公司(SpaceX)提出的一个巨型低轨卫星互联网星座项目,计划在2019年至2024年间在太空搭建由约1.2万颗卫星组成的“星链”网络,其中1584颗将部署在地球上空550千米处的近地轨道,并从2020年开始工作。该卫星仍在工作。
2D Orbit Map
3D Orbit Map
Orbit Altitude Analysis Chart
Orbit Inclination Analysis Chart
Orbit Comprehensive Analysis Chart
View Comprehensive Chart
Conjunction Data List
Event ID Objects TCA Miss Dist (km) Collision Risk Probability Collision Risk Index (CRI) Action
CDM_260912-125805-813506-400221
2026-09-12T
12:58:54+0000
0.153 km
中距离
8.693356E-4 高风险 0.94
CDM_260913-004505-813506-400221
2026-09-13T
00:45:03+0000
1.212 km
极远距离
1.022987E-5 中风险 0.55
CDM_260912-134405-813506-649721
2026-09-12T
13:44:41+0000
1.226 km
极远距离
1.003517E-5 中风险 0.55
CDM_260912-033205-813506-649721
2026-09-12T
03:32:42+0000
1.330 km
极远距离
7.580673E-6 低风险 0.53
CDM_260913-204305-813506-795121
2026-09-13T
20:43:32+0000
1.311 km
极远距离
5.086685E-6 低风险 0.49
CDM_260912-015805-813506-649721
2026-09-12T
01:58:33+0000
1.855 km
极远距离
2.693183E-6 低风险 0.44
CDM_260909-173905-325505-813521
2026-09-09T
17:39:00+0000
1.979 km
极远距离
1.995618E-6 低风险 0.41
CDM_260913-021905-813506-400221
2026-09-13T
02:19:12+0000
2.367 km
极远距离
1.500724E-6 低风险 0.39
CDM_260912-143305-813506-400222
2026-09-12T
14:33:03+0000
2.528 km
极远距离
1.333003E-6 低风险 0.37
CDM_260912-121005-813506-649721
2026-09-12T
12:10:32+0000
2.771 km
极远距离
1.174581E-6 低风险 0.36
Miss Distance Evolution Trend with All Objects
Collision Probability Evolution Trend with All Objects